G7NPW-1 Weather Reports


time (UTC)temp
C
wind
direction
speed
KPH
gust
KPH
rain 1hr
cm
rain 24hr
cm
rain mn
cm
humidity
%
barometer
mb
20260509210504 10 20 20.9 22.5 0.00 0.00 0.00 87 1020.0
20260509205505 11 20 22.5 22.5 0.00 0.00 0.00 81 1020.0
20260509204504 11 20 22.5 22.5 0.00 0.00 0.00 81 1020.0
20260509204007 11 20 22.5 22.5 0.00 0.00 0.00 81 1020.0
20260509203504 11 20 22.5 22.5 0.00 0.00 0.00 81 1020.0
20260509203007 11 20 22.5 22.5 0.00 0.00 0.00 81 1020.0
20260509202008 11 20 22.5 22.5 0.00 0.00 0.00 81 1020.0
20260509200004 11 20 22.5 22.5 0.00 0.00 0.00 81 1020.0
20260509192007 11 10 16.1 16.1 0.00 0.00 0.00 87 1019.0
20260509190004 11 10 16.1 19.3 0.00 0.00 0.00 87 1019.0
20260509185008 12 10 19.3 19.3 0.00 0.00 0.00 76 1019.0
20260509181504 12 10 19.3 19.3 0.00 0.00 0.00 76 1019.0
20260509174007 16 10 16.1 16.1 0.00 0.00 0.00 63 1017.9
20260509171504 16 10 16.1 16.1 0.00 0.00 0.00 63 1017.9
20260509170505 16 10 16.1 16.1 0.00 0.00 0.00 63 1017.9
20260509170004 16 10 16.1 16.1 0.00 0.00 0.00 63 1017.9
20260509163504 16 10 16.1 16.1 0.00 0.00 0.00 63 1017.9
20260509162007 16 10 16.1 16.1 0.00 0.00 0.00 63 1017.9
20260509161504 16 10 16.1 16.1 0.00 0.00 0.00 63 1017.9
20260509161007 16 10 16.1 16.1 0.00 0.00 0.00 63 1017.9
20260509160504 16 10 16.1 16.1 0.00 0.00 0.00 63 1017.9
20260509155504 18 20 12.9 12.9 0.00 0.00 0.00 55 1017.9
20260509154504 18 20 12.9 12.9 0.00 0.00 0.00 55 1017.9
20260509153007 18 20 12.9 12.9 0.00 0.00 0.00 55 1017.9
20260509152504 18 20 12.9 12.9 0.00 0.00 0.00 55 1017.9
20260509151503 18 20 12.9 12.9 0.00 0.00 0.00 55 1017.9
20260509150004 18 20 12.9 12.9 0.00 0.00 0.00 55 1017.9
20260509145007 18 80 12.9 12.9 0.00 0.00 0.00 39 1017.9
20260509144503 18 80 12.9 12.9 0.00 0.00 0.00 39 1017.9
20260509141504 18 80 12.9 12.9 0.00 0.00 0.00 39 1017.9
20260509140004 18 80 12.9 12.9 0.00 0.00 0.00 39 1017.9
20260509135007 17 80 12.9 12.9 0.00 0.00 0.00 45 1017.9
20260509130504 17 80 12.9 12.9 0.00 0.00 0.00 45 1017.9
20260509125503 17 60 11.3 11.3 0.00 0.00 0.00 45 1019.0
20260509123008 17 60 11.3 11.3 0.00 0.00 0.00 45 1019.0
20260509122504 17 60 11.3 11.3 0.00 0.00 0.00 45 1019.0
20260509122007 17 60 11.3 11.3 0.00 0.00 0.00 45 1019.0
20260509120504 17 60 11.3 11.3 0.00 0.00 0.00 45 1019.0
20260509114504 17 60 11.3 11.3 0.00 0.00 0.00 45 1019.0
20260509105504 17 90 9.7 9.7 0.00 0.00 0.00 51 1019.0
20260509105006 17 90 9.7 9.7 0.00 0.00 0.00 51 1019.0
20260509104007 17 90 9.7 9.7 0.00 0.00 0.00 51 1019.0
20260509102504 17 90 9.7 9.7 0.00 0.00 0.00 51 1019.0
20260509102007 17 90 9.7 9.7 0.00 0.00 0.00 51 1019.0
20260509094008 15 90 9.7 9.7 0.00 0.00 0.00 54 1019.0
20260509093504 15 90 9.7 9.7 0.00 0.00 0.00 54 1019.0
20260509092008 15 90 9.7 9.7 0.00 0.00 0.00 54 1019.0
20260509091504 15 90 9.7 9.7 0.00 0.00 0.00 54 1019.0
20260509090004 15 90 9.7 9.7 0.00 0.00 0.00 54 1019.0
20260509082503 13 80 8.0 8.0 0.00 0.00 0.00 62 1019.0
20260509081007 13 80 8.0 8.0 0.00 0.00 0.00 62 1019.0
20260509080504 13 80 8.0 8.0 0.00 0.00 0.00 62 1019.0
20260509074504 12 110 8.0 8.0 0.00 0.00 0.00 66 1019.0
20260509071504 12 110 8.0 8.0 0.00 0.00 0.00 66 1019.0
20260509065007 15 100 9.7 9.7 0.00 0.00 0.00 54 1017.9
20260509064007 15 100 9.7 9.7 0.00 0.00 0.00 54 1017.9
20260509062504 15 100 9.7 9.7 0.00 0.00 0.00 54 1017.9
20260509062007 15 100 9.7 9.7 0.00 0.00 0.00 54 1017.9
20260509061504 15 100 9.7 9.7 0.00 0.00 0.00 54 1017.9
20260509061007 15 100 9.7 9.7 0.00 0.00 0.00 54 1017.9
20260509060504 15 100 9.7 9.7 0.00 0.00 0.00 54 1017.9
20260509060006 15 100 9.7 9.7 0.00 0.00 0.00 54 1017.9